Date String (YYYY-MM-DD hh:mm:ss) UTC,Instrument flags,Ambient pressure (hPa),Sample flow (lpm),Bypass flow (lpm),Sample temperature (°C),Ambient temperature (°C),ASC tube jacket temperature (°C),LED temperature (°C),Box temperature (°C),Sample RH (%),Span deviation,Mass concentration (μg/m³),Mass concentration (μg/m³),Mass concentration (μg/m³)
DateTimeUTC,F1_M11,P_M11,Q1_M11,Q2_M11,T1_M11,T2_M11,T3_M11,T4_M11,T5_M11,U1_M11,ZSPAN_M11,X0_M11,X2_M11,X1_M11
2023-04-10 01:00:00,,0835.8,5.00,0.00,29.7,28.2,00.0,38.1,31.2,07.9,0000.0,0009.08,0003.88,0002.03
2023-04-10 01:01:00,,0835.8,5.01,0.00,29.7,28.2,00.0,38.1,31.2,07.9,0000.0,0009.15,0003.89,0002.04
2023-04-10 01:02:00,,0835.8,5.00,0.00,29.7,28.1,00.0,38.1,31.2,07.8,0000.0,0009.15,0003.85,0002.02
2023-04-10 01:03:00,,0835.8,5.01,0.00,29.7,28.1,00.0,38.1,31.2,07.9,0000.0,0009.08,0003.84,0002.04
2023-04-10 01:04:00,,0835.8,5.01,0.00,29.7,28.1,00.0,38.1,31.2,07.9,0000.0,0008.76,0003.81,0002.05
2023-04-10 01:05:00,,0835.8,5.01,0.00,29.7,28.1,00.0,38.1,31.1,07.9,0000.0,0008.86,0003.86,0002.05
2023-04-10 01:06:00,,0835.8,5.00,0.00,29.7,28.2,00.0,38.1,31.2,07.9,0000.0,0008.91,0003.82,0002.05
2023-04-10 01:07:00,,0835.8,4.99,0.00,29.7,28.2,00.0,38.1,31.2,07.9,0000.0,0008.99,0003.82,0002.05
2023-04-10 01:08:00,,0835.8,5.00,0.00,29.7,28.2,00.0,38.1,31.1,07.8,0000.0,0008.93,0003.81,0002.06
2023-04-10 01:09:00,,0835.8,4.99,0.00,29.7,28.1,00.0,38.1,31.1,07.8,0000.0,0009.16,0003.83,0002.07
2023-04-10 01:10:00,,0835.9,5.00,0.00,29.7,28.1,00.0,38.1,31.2,07.9,0000.0,0009.61,0003.84,0002.06
2023-04-10 01:11:00,,0835.9,5.00,0.00,29.7,28.2,00.0,38.1,31.2,08.0,0000.0,0009.63,0003.88,0002.06
2023-04-10 01:12:00,,0835.9,5.01,0.00,29.7,28.2,00.0,38.1,31.1,08.0,0000.0,0009.79,0003.94,0002.06
2023-04-10 01:13:00,,0835.9,5.00,0.00,29.7,28.2,00.0,38.1,31.2,07.9,0000.0,0009.97,0003.98,0002.08
2023-04-10 01:14:00,,0835.9,5.01,0.00,29.7,28.2,00.0,38.1,31.2,08.0,0000.0,0010.23,0003.99,0002.09
2023-04-10 01:15:00,,0835.9,5.00,0.00,29.7,28.1,00.0,38.1,31.1,08.0,0000.0,0010.16,0003.95,0002.09
2023-04-10 01:16:00,,0835.9,5.00,0.00,29.7,28.1,00.0,38.1,31.2,07.9,0000.0,0010.49,0003.95,0002.09
2023-04-10 01:17:00,,0835.9,5.00,0.00,29.7,28.1,00.0,38.1,31.1,07.9,0000.0,0010.70,0004.01,0002.10
2023-04-10 01:18:00,,0835.9,5.00,0.00,29.7,28.1,00.0,38.1,31.1,07.8,0000.0,0011.48,0004.08,0002.13
2023-04-10 01:19:00,,0835.9,5.01,0.00,29.7,28.1,00.0,38.1,31.1,07.7,0000.0,0011.56,0004.08,0002.15
2023-04-10 01:20:00,,0835.9,5.00,0.00,29.7,28.1,00.0,38.1,31.1,07.7,0000.0,0011.51,0004.16,0002.17
2023-04-10 01:21:00,,0836.0,5.00,0.00,29.6,28.0,00.0,38.1,31.1,07.7,0000.0,0011.18,0004.19,0002.20
2023-04-10 01:22:00,,0835.9,4.99,0.00,29.6,28.0,00.0,38.0,31.1,07.8,0000.0,0011.23,0004.21,0002.21
2023-04-10 01:23:00,,0835.9,5.00,0.00,29.6,28.0,00.0,38.0,31.1,07.7,0000.0,0011.28,0004.26,0002.23
2023-04-10 01:24:00,,0835.9,5.00,0.00,29.6,28.0,00.0,38.0,31.1,07.7,0000.0,0011.22,0004.24,0002.21
2023-04-10 01:25:00,,0835.9,5.00,0.00,29.6,28.0,00.0,38.0,31.1,07.8,0000.0,0011.10,0004.27,0002.21
2023-04-10 01:26:00,,0835.9,4.99,0.00,29.6,28.0,00.0,38.0,31.0,07.8,0000.0,0011.18,0004.30,0002.21
2023-04-10 01:27:00,,0835.9,4.99,0.00,29.6,28.0,00.0,38.0,31.0,07.7,0000.0,0010.72,0004.25,0002.22
2023-04-10 01:28:00,,0835.9,5.00,0.00,29.6,28.0,00.0,38.0,31.1,07.7,0000.0,0010.46,0004.19,0002.22
2023-04-10 01:29:00,,0835.9,5.00,0.00,29.6,28.0,00.0,38.0,31.1,07.7,0000.0,0009.66,0004.17,0002.21
2023-04-10 01:30:00,,0835.9,5.00,0.00,29.6,27.9,00.0,38.0,31.0,07.8,0000.0,0009.83,0004.20,0002.22
2023-04-10 01:31:00,,0836.0,5.00,0.00,29.6,27.9,00.0,38.0,31.0,07.8,0000.0,0010.17,0004.18,0002.20
2023-04-10 01:32:00,,0836.0,5.01,0.00,29.5,27.9,00.0,38.0,31.0,07.7,0000.0,0010.17,0004.18,0002.20
2023-04-10 01:33:00,,0836.0,5.00,0.00,29.5,27.9,00.0,38.0,31.0,07.7,0000.0,0010.23,0004.21,0002.21
2023-04-10 01:34:00,,0836.1,5.00,0.00,29.5,27.9,00.0,38.0,31.0,07.7,0000.0,0010.65,0004.14,0002.20
2023-04-10 01:35:00,,0836.1,4.99,0.00,29.5,27.9,00.0,38.0,31.0,07.7,0000.0,0011.46,0004.18,0002.23
2023-04-10 01:36:00,,0836.0,5.00,0.00,29.5,27.9,00.0,38.0,31.0,07.8,0000.0,0011.38,0004.13,0002.23
2023-04-10 01:37:00,,0836.0,4.99,0.00,29.5,27.9,00.0,38.0,31.0,07.9,0000.0,0011.38,0004.11,0002.22
2023-04-10 01:38:00,,0836.0,5.00,0.00,29.5,27.9,00.0,37.9,31.0,07.9,0000.0,0011.96,0004.13,0002.21
2023-04-10 01:39:00,,0836.0,5.00,0.00,29.5,27.9,00.0,37.9,31.0,07.9,0000.0,0012.35,0004.17,0002.19
2023-04-10 01:40:00,,0836.1,4.99,0.00,29.5,27.9,00.0,37.9,31.0,07.8,0000.0,0012.27,0004.15,0002.20
2023-04-10 01:41:00,,0836.1,5.01,0.00,29.5,27.9,00.0,37.9,30.9,07.8,0000.0,0012.27,0004.13,0002.20
2023-04-10 01:42:00,,0836.1,5.01,0.00,29.5,27.8,00.0,37.9,30.9,07.7,0000.0,0012.00,0004.10,0002.19
2023-04-10 01:43:00,,0836.1,5.01,0.00,29.5,27.8,00.0,37.9,30.9,07.7,0000.0,0011.86,0004.11,0002.19
2023-04-10 01:44:00,,0836.1,4.99,0.00,29.5,27.8,00.0,37.9,30.9,07.8,0000.0,0011.77,0004.08,0002.18
2023-04-10 01:45:00,,0836.1,4.99,0.00,29.4,27.8,00.0,37.9,30.9,07.9,0000.0,0011.61,0004.07,0002.19
2023-04-10 01:46:00,,0836.1,5.00,0.00,29.4,27.8,00.0,37.9,30.9,07.8,0000.0,0010.56,0004.05,0002.19
2023-04-10 01:47:00,,0836.1,5.00,0.00,29.4,27.8,00.0,37.9,30.9,07.8,0000.0,0010.32,0004.07,0002.19
2023-04-10 01:48:00,,0836.1,5.00,0.00,29.4,27.7,00.0,37.9,30.9,07.8,0000.0,0010.34,0004.09,0002.19
2023-04-10 01:49:00,,0836.1,5.01,0.00,29.4,27.7,00.0,37.9,30.8,07.8,0000.0,0010.09,0004.10,0002.20
2023-04-10 01:50:00,,0836.2,5.00,0.00,29.4,27.7,00.0,37.9,30.8,07.7,0000.0,0009.56,0004.07,0002.21
2023-04-10 01:51:00,,0836.1,5.00,0.00,29.4,27.7,00.0,37.8,30.8,07.8,0000.0,0009.76,0004.12,0002.21
2023-04-10 01:52:00,,0836.2,5.00,0.00,29.4,27.7,00.0,37.8,30.8,07.8,0000.0,0009.67,0004.14,0002.19
2023-04-10 01:53:00,,0836.2,5.00,0.00,29.3,27.6,00.0,37.8,30.8,07.8,0000.0,0009.63,0004.12,0002.20
2023-04-10 01:54:00,,0836.2,5.00,0.00,29.3,27.6,00.0,37.8,30.8,07.8,0000.0,0009.64,0004.08,0002.22
2023-04-10 01:55:00,,0836.2,4.99,0.00,29.3,27.6,00.0,37.8,30.8,07.8,0000.0,0009.71,0004.08,0002.20
2023-04-10 01:56:00,,0836.2,5.01,0.00,29.3,27.6,00.0,37.8,30.8,07.8,0000.0,0010.16,0004.09,0002.18
2023-04-10 01:57:00,,0836.2,5.01,0.00,29.3,27.6,00.0,37.8,30.7,07.8,0000.0,0010.39,0004.07,0002.16
2023-04-10 01:58:00,,0836.2,5.00,0.00,29.3,27.6,00.0,37.8,30.8,07.8,0000.0,0010.45,0004.05,0002.15
2023-04-10 01:59:00,,0836.2,5.00,0.00,29.3,27.6,00.0,37.8,30.8,07.8,0000.0,0011.32,0004.02,0002.14
